TimePST,TemperatureF,Dew PointF,Humidity,Sea Level PressureIn,VisibilityMPH,Wind Direction,Wind SpeedMPH,Gust SpeedMPH,PrecipitationIn,Events,Conditions,WindDirDegrees,DateUTC
12:56 AM,39.0,36.0,89,30.29,10.0,ESE,3.5,-,N/A,,Overcast,120,2013-02-17 08:56:00
1:56 AM,41.0,36.0,82,30.30,10.0,West,4.6,-,N/A,,Mostly Cloudy,270,2013-02-17 09:56:00
2:56 AM,35.1,33.1,92,30.30,10.0,Calm,Calm,-,N/A,,Clear,0,2013-02-17 10:56:00
3:56 AM,36.0,35.1,97,30.29,10.0,ESE,4.6,-,N/A,,Overcast,110,2013-02-17 11:56:00
4:56 AM,36.0,35.1,97,30.30,10.0,Calm,Calm,-,N/A,,Overcast,0,2013-02-17 12:56:00
5:56 AM,37.0,35.1,93,30.30,10.0,SE,3.5,-,N/A,,Overcast,130,2013-02-17 13:56:00
6:56 AM,37.0,35.1,93,30.29,10.0,Calm,Calm,-,N/A,,Mostly Cloudy,0,2013-02-17 14:56:00
7:56 AM,37.0,36.0,96,30.29,10.0,Calm,Calm,-,N/A,,Mostly Cloudy,0,2013-02-17 15:56:00
8:56 AM,41.0,37.0,86,30.30,10.0,Calm,Calm,-,N/A,,Mostly Cloudy,0,2013-02-17 16:56:00
9:56 AM,43.0,37.0,80,30.29,10.0,Variable,3.5,-,N/A,,Mostly Cloudy,0,2013-02-17 17:56:00
10:56 AM,44.1,36.0,73,30.27,10.0,ESE,4.6,-,N/A,,Mostly Cloudy,120,2013-02-17 18:56:00
11:56 AM,45.0,35.1,68,30.27,10.0,Calm,Calm,-,N/A,,Overcast,0,2013-02-17 19:56:00
12:56 PM,46.0,34.0,63,30.25,10.0,Calm,Calm,-,N/A,,Overcast,0,2013-02-17 20:56:00
1:56 PM,46.9,32.0,56,30.24,10.0,ESE,4.6,-,N/A,,Overcast,120,2013-02-17 21:56:00
2:56 PM,46.0,30.9,56,30.22,10.0,ESE,3.5,-,N/A,,Overcast,110,2013-02-17 22:56:00
3:56 PM,46.0,30.9,56,30.21,10.0,Calm,Calm,-,N/A,,Overcast,0,2013-02-17 23:56:00
4:56 PM,46.0,30.9,56,30.19,10.0,Calm,Calm,-,N/A,,Overcast,0,2013-02-18 00:56:00
5:56 PM,45.0,30.0,56,30.17,10.0,Calm,Calm,-,N/A,,Partly Cloudy,0,2013-02-18 01:56:00
6:56 PM,41.0,33.1,73,30.16,10.0,Calm,Calm,-,N/A,,Clear,0,2013-02-18 02:56:00
7:56 PM,37.9,32.0,79,30.16,10.0,Calm,Calm,-,N/A,,Clear,0,2013-02-18 03:56:00
8:56 PM,36.0,33.1,89,30.14,10.0,Calm,Calm,-,N/A,,Clear,0,2013-02-18 04:56:00
9:56 PM,36.0,33.1,89,30.13,10.0,Calm,Calm,-,N/A,,Clear,0,2013-02-18 05:56:00
10:56 PM,34.0,32.0,92,30.12,10.0,Calm,Calm,-,N/A,,Clear,0,2013-02-18 06:56:00
11:56 PM,35.1,33.1,92,30.10,10.0,Calm,Calm,-,N/A,,Clear,0,2013-02-18 07:56:00